Skip Page Navigation
NASA JPL Caltech
NASA Logo - Jet Propulsion Laboratory + View the NASA Portal
+ Near-Earth Object (NEO) Program
Search JPL
JPL Home Earth Solar System Stars & Galaxies Technology
JPL Solar System Dynamics
BODIES ORBITS EPHEMERIDES TOOLS PHYSICAL DATA DISCOVERY FAQ SITE MAP
JPL Small-Body Database Browser
Search: [ help ]  
11082 Spilliaert (1993 JW)
Classification: Outer Main-belt Asteroid          SPK-ID: 2011082
Ephemeris | Orbit Diagram | Orbital Elements | Physical Parameters | Discovery Circumstances | Close-Approach Data ]

[ show orbit diagram ]
Orbital Elements at Epoch 2457000.5 (2014-Dec-09.0) TDB
Reference: JPL 10 (heliocentric ecliptic J2000)
 Element Value Uncertainty (1-sigma)   Units 
e .06201528952441569 9.0101e-08  
a 3.2311147899341 4.8152e-08 AU
q 3.030736270749715 2.9174e-07 AU
i 12.58766246761148 8.8733e-06 deg
node 68.53609038321561 3.2237e-05 deg
peri 158.2149754749956 6.2656e-05 deg
M 276.2355964918158 5.7037e-05 deg
tp 2457494.110065564909
(2016-Apr-15.61006556)
0.00033928 JED
period 2121.421703743229
5.81
4.7422e-05
1.298e-07
d
yr
n .1696975190575185 3.7934e-09 deg/d
Q 3.431493309118485 5.1138e-08 AU
  Orbit Determination Parameters
   # obs. used (total)      887  
   data-arc span      13113 days (35.90 yr)  
   first obs. used      1978-11-30  
   last obs. used      2014-10-25  
   planetary ephem.      DE431  
   SB-pert. ephem.      SB431-BIG16  
   condition code      0  
   fit RMS      .48917  
   data source      ORB  
   producer      Otto Matic  
   solution date      2014-Nov-10 13:14:01  

Additional Information
 Earth MOID = 2.02486 AU 
 T_jup = 3.146 
[ show covariance matrix ]

Ephemeris | Orbit Diagram | Orbital Elements | Physical Parameters | Discovery Circumstances | Close-Approach Data ]

Physical Parameter Table
Parameter Symbol Value Units Sigma Reference Notes
absolute magnitude H 12.5 mag n/a MPO253442  

11082 Spilliaert           Discovered 1993 May 14 by E. W. Elst at the European Southern Observatory.
Léon Spilliaert (1881-1946) was a self-taught Belgian painter who developed his art far beyond the symbolism of the fin de siècle. Precursors of geometrical abstractions, his La Baigneuse and La Digue show the strong influence of the surroundings of Ostend, where he was living.
NOTE: some special characters may not display properly (any characters within {} are an attempt to place the proper accent above a character)
Reference: 20070402/MPCPages.arcLast Updated: 2007-07-05

[ show close-approach data ]
Alternate Designations
 1993 JW = 1978 WJ18 = 1998 GR3 
Ephemeris | Orbit Diagram | Orbital Elements | Physical Parameters | Discovery Circumstances | Close-Approach Data ]
ABOUT SSD CREDITS/AWARDS PRIVACY/COPYRIGHT GLOSSARY LINKS
FirstGov 2014-Dec-19 20:59 UT
(server date/time)  
NASA Home Page
Site Manager:   Donald K. Yeomans
Webmaster  Alan B. Chamberlin